Henrik Krøyer Holme

KL  EN  DA
ASIAQ
Weather Now GREENLAND SURVEY
Updated [WGT/WGST] Temperature [°C] Wind [m/s] Air pressure [hPa] Relative humidity [%] Precipitation [mm]
Present Wind chill Speed Max
02.09 21:00n/an/an/an/an/an/an/a
02.09 20:00-3,5-9,05,0 ⇙7,0101288n/a
02.09 19:00-3,7-8,54,0 ⇓5,0101284n/a
02.09 18:00-3,8-9,85,0 ⇙7,0101285n/a
02.09 17:00-3,5-9,76,0 ⇙8,0101286n/a
02.09 16:00-3,5-10,06,0 ⇙9,0101287n/a
02.09 15:00-4,2-10,66,0 ⇙8,0101287n/a
02.09 14:00-4,1-10,56,0 ⇙8,0101384n/a
02.09 13:00-3,8-9,85,0 ⇙8,0101382n/a
02.09 12:00-4,2-10,66,0 ⇙7,0101382n/a
02.09 11:00-4,3-10,45,0 ⇙7,0101385n/a
02.09 10:00-4,6-11,16,0 ⇙7,0101385n/a
02.09 09:00-4,9-11,15,0 ⇙7,0101389n/a
02.09 08:00-5,4-11,85,0 ⇙7,0101390n/a
02.09 07:00-5,6-11,75,0 ⇙7,0101390n/a
02.09 06:00-5,9-12,45,0 ⇙7,0101392n/a
02.09 05:00-5,9-12,45,0 ⇙7,0101392n/a
02.09 04:00-5,9-12,45,0 ⇙7,0101391n/a
02.09 03:00-5,9-12,45,0 ⇙7,0101489n/a
02.09 02:00-6,0-12,96,0 ⇙7,0101492n/a
02.09 01:00-6,3-12,95,0 ⇙7,0101496n/a
02.09 00:00-5,8-11,95,0 ⇙6,0101490n/a
01.09 23:00-5,3-10,94,0 ⇙5,0101491n/a
01.09 22:00-5,4-11,45,0 ⇙6,0101491n/a
01.09 21:00-5,2-10,84,0 ⇙6,0101494n/a
Position: (80.649444,-13.711944)

[Back]